Weather History for Cork, Ireland

Change the Weather History Date:

Sunday, October 7, 2012

  Actual Average Record
Temperature  
Mean Temperature 48 °F -  
Max Temperature 53 °F 55 °F 62 °F (2013)
Min Temperature 43 °F 45 °F 41 °F (2004)
Degree Days  
Heating Degree Days 17    
Moisture  
Dew Point 47 °F    
Average Humidity 93    
Maximum Humidity 100    
Minimum Humidity 82    
Precipitation  
Precipitation 0.20 in 0.16 in - ()
Sea Level Pressure  
Sea Level Pressure 30.07 in    
Wind  
Wind Speed 9 mph ()    
Max Wind Speed 23 mph    
Max Gust Speed 30 mph    
Visibility 6.7 miles    
Events Fog , Rain    
Averages and records for this station are not official NWS values.
T = Trace of Precipitation, MM = Missing Value Source: Averaged Metar Reports

Daily Weather History Graph

Daily Weather History Graph

Search for Another Location

Airport:

Trip Planner

Search our weather history database for the weather conditions in past years. The results will help you decide how hot, cold, wet, or windy it might be!

Date:

Astronomy

Oct. 07, 2012 Rise Set
Actual Time 7:45 AM IST 6:56 PM IST
Civil Twilight 7:11 AM IST 7:30 PM IST
Nautical Twilight 6:32 AM IST 8:09 PM IST
Astronomical Twilight 5:53 AM IST 8:48 PM IST
Moon 11:25 PM IST (10/7) 2:44 PM IST (10/7)
Length of Visible Light 12h 18m
Length of Day
11h 11m
Waning Gibbous, 58% of the Moon is Illuminated
Oct 7
Waning Gibbous
Oct 8
Last Quarter
Oct 15
New
Oct 22
First Quarter
Oct 29
Full

Hourly Weather History & Observations

Time (IST) Temp. Windchill Dew Point Humidity Pressure Visibility Wind Dir Wind Speed Gust Speed Precip Events Conditions
12:00 AM 46.4 °F 43.5 °F 44.6 °F 93% 30.09 in - NNW 5.8 mph - N/A   Clear
12:30 AM 44.6 °F 40.7 °F 44.6 °F 100% 30.09 in - NNW 6.9 mph - N/A   Clear
1:00 AM 45 °F - 44 °F 92% 30.12 in 19 mi North 4.5 mph - -  
1:00 AM 44.6 °F 42.2 °F 42.8 °F 93% 30.09 in - North 4.6 mph - N/A   Clear
1:30 AM 44.6 °F 40.7 °F 44.6 °F 100% 30.09 in - North 6.9 mph - N/A   Clear
2:00 AM 44.6 °F 40.2 °F 44.6 °F 100% 30.12 in - North 8.1 mph - N/A   Clear
2:30 AM 46.4 °F 41.9 °F 44.6 °F 93% 30.12 in - NNE 9.2 mph - N/A   Clear
3:00 AM 44.6 °F 42.2 °F 42.8 °F 93% 30.12 in - North 4.6 mph - N/A   Clear
3:30 AM 44.6 °F 40.7 °F 42.8 °F 93% 30.09 in - NNW 6.9 mph - N/A   Clear
4:00 AM 44.6 °F 40.7 °F 42.8 °F 93% 30.09 in - NNE 6.9 mph - N/A   Clear
4:30 AM 44.6 °F 43.1 °F 44.6 °F 100% 30.12 in - Variable 3.5 mph - N/A   Clear
5:00 AM 44.6 °F 43.1 °F 44.6 °F 100% 30.12 in - Variable 3.5 mph - N/A   Clear
5:30 AM 44.6 °F 43.1 °F 44.6 °F 100% 30.12 in - Variable 3.5 mph - N/A   Clear
6:00 AM 44.6 °F 43.1 °F 44.6 °F 100% 30.12 in - ENE 3.5 mph - N/A   Clear
6:30 AM 44.6 °F 40.7 °F 42.8 °F 93% 30.09 in - NE 6.9 mph - N/A   Clear
7:00 AM 45 °F - 44 °F 92% 30.14 in 16 mi ENE 6.7 mph - -   Clear
7:00 AM 44.6 °F 41.4 °F 42.8 °F 93% 30.12 in - ENE 5.8 mph - N/A   Clear
7:30 AM 44.6 °F 40.7 °F 42.8 °F 93% 30.12 in 6.2 mi ENE 6.9 mph - N/A Fog Shallow Fog
8:00 AM 44.6 °F 40.2 °F 42.8 °F 93% 30.12 in 6.2 mi ENE 8.1 mph - N/A Fog Shallow Fog
8:30 AM 44.6 °F 40.2 °F 42.8 °F 93% 30.12 in 6.2 mi East 8.1 mph - N/A   Mostly Cloudy
9:00 AM 46.4 °F 42.4 °F 44.6 °F 93% 30.12 in 6.2 mi East 8.1 mph - N/A   Mostly Cloudy
9:30 AM 46.4 °F 41.9 °F 44.6 °F 93% 30.12 in 6.2 mi East 9.2 mph - N/A   Mostly Cloudy
10:00 AM 46.4 °F 41.5 °F 44.6 °F 93% 30.12 in 6.2 mi East 10.4 mph - N/A   Overcast
10:30 AM 48.2 °F - 46.4 °F 93% 30.12 in 6.2 mi East 12.7 mph - N/A   Overcast
11:00 AM 50.0 °F - 48.2 °F 94% 30.12 in 6.2 mi East 12.7 mph - N/A   Overcast
11:30 AM 50.0 °F - 50.0 °F 100% 30.12 in 6.2 mi East 11.5 mph - N/A   Overcast
12:00 PM 51.8 °F - 50.0 °F 94% 30.12 in 6.2 mi East 13.8 mph - N/A   Mostly Cloudy
12:30 PM 51.8 °F - 50.0 °F 94% 30.12 in 6.2 mi East 13.8 mph - N/A   Mostly Cloudy
1:00 PM 52 °F - 51 °F 96% 30.13 in 19 mi East 15.7 mph - -   Overcast
1:00 PM 51.8 °F - 51.8 °F 100% 30.09 in 6.2 mi East 15.0 mph - N/A   Mostly Cloudy
1:30 PM 53.6 °F - 50.0 °F 88% 30.09 in 6.2 mi ESE 12.7 mph - N/A   Mostly Cloudy
2:00 PM 51.8 °F - 50.0 °F 94% 30.06 in 6.2 mi East 15.0 mph - N/A   Mostly Cloudy
2:30 PM 53.6 °F - 50.0 °F 88% 30.06 in 6.2 mi East 12.7 mph - N/A   Mostly Cloudy
3:00 PM 53.6 °F - 48.2 °F 82% 30.06 in 6.2 mi ESE 16.1 mph - N/A   Mostly Cloudy
3:30 PM 53.6 °F - 48.2 °F 82% 30.06 in 6.2 mi ESE 17.3 mph - N/A   Mostly Cloudy
4:00 PM 53.6 °F - 48.2 °F 82% 30.04 in 6.2 mi ESE 18.4 mph - N/A   Mostly Cloudy
4:30 PM 53.6 °F - 50.0 °F 88% 30.04 in 6.2 mi ESE 16.1 mph - N/A   Mostly Cloudy
5:00 PM 53.6 °F - 48.2 °F 82% 30.04 in 6.2 mi ESE 17.3 mph - N/A Rain Light Rain
5:30 PM 51.8 °F - 48.2 °F 88% 30.04 in 6.2 mi ESE 17.3 mph 29.9 mph N/A Rain Light Rain
6:00 PM 51.8 °F - 48.2 °F 88% 30.04 in 6.2 mi East 18.4 mph - N/A Rain Light Rain
6:30 PM 51.8 °F - 48.2 °F 88% 30.04 in 6.2 mi East 17.3 mph - N/A   Mostly Cloudy
7:00 PM 52 °F - 49 °F 85% 30.02 in 19 mi East 20.1 mph - - Rain Light Rain
7:00 PM 51.8 °F - 48.2 °F 88% 30.01 in 6.2 mi East 19.6 mph - N/A   Mostly Cloudy
7:30 PM 51.8 °F - 50.0 °F 94% 29.98 in 6.2 mi East 19.6 mph - N/A Rain Light Rain
8:00 PM 51.8 °F - 50.0 °F 94% 30.01 in 5.0 mi East 17.3 mph - N/A Rain Light Rain
8:30 PM 51.8 °F - 50.0 °F 94% 30.01 in 3.1 mi East 17.3 mph - N/A Rain Light Rain
9:00 PM 51.8 °F - 50.0 °F 94% 29.98 in 3.1 mi East 18.4 mph - N/A Rain Light Rain
9:30 PM 51.8 °F - 51.8 °F 100% 29.98 in 1.9 mi East 19.6 mph - N/A Rain Light Rain
10:00 PM 51.8 °F - 51.8 °F 100% 29.98 in 1.9 mi East 20.7 mph - N/A Rain Light Rain
10:30 PM 50.0 °F - 50.0 °F 100% 29.98 in 2.5 mi East 20.7 mph - N/A Rain Light Rain
11:00 PM 50.0 °F - 50.0 °F 100% 29.95 in 1.9 mi East 23.0 mph - N/A Rain Light Rain
11:30 PM 50.0 °F - 50.0 °F 100% 29.95 in 2.2 mi East 21.9 mph - N/A Rain Light Rain